Wetbulb
59.14 59.18 59.44 59.48 59.48 59.60 59.52 59.73 59.82 59.91 60.26 60.47 60.52 60.60 60.45 60.45 58.72 60.90 58.50 62.80 64.53 65.92 64.80 59.76 62.19 62.90 63.12 61.90 62.25 62.43 56.52 54.05 54.73 54.95 57.60 61.63 59.96 64.12 64.55 61.45 62.56 63.95 65.32 67.43 69.47
58.55 58.87 59.04 59.34 59.60 59.59 59.50 59.40 59.60 59.65 59.87 60.27 60.25 60.06 60.10 59.77 59.03 58.98 62.34 67.42 67.20 68.63 57.16 57.43 59.15 61.50 60.37 60.47 60.45 58.92 55.69 55.31 58.65 59.33 57.57 60.65 61.52 61.75 62.01 61.58 61.22 63.01 66.97 69.14 69.16
58.02 58.33 58.55 58.97 59.38 59.45 59.32 59.24 59.42 59.62 59.88 60.12 59.71 59.64 59.85 59.86 59.15 60.11 67.60 67.50 68.17 65.81 61.33 60.42 60.66 60.62 59.10 59.96 59.05 58.21 54.87 57.37 57.65 59.32 60.55 60.01 60.55 62.44 61.82 56.94 61.80 61.31 64.27 68.49 69.16
57.54 58.20 58.50 58.83 59.43 59.31 59.13 59.08 59.41 59.69 59.79 59.55 59.27 59.55 59.84 60.12 53.87 62.15 71.06 67.07 67.84 63.28 60.20 58.95 58.72 57.84 57.00 56.60 58.58 55.32 57.02 57.66 58.40 59.23 59.11 59.02 61.34 59.81 62.35 60.55 63.90 64.00 65.27 68.11 68.58
57.67 57.99 58.27 58.67 58.80 58.69 58.59 58.64 58.80 58.89 59.01 58.78 59.43 59.81 60.15 59.02 57.71 66.65 69.70 66.40 59.96 60.66 58.98 58.63 58.21 58.58 57.23 57.30 57.47 56.16 56.65 57.39 58.40 59.60 59.88 60.60 59.60 59.65 60.85 63.59 64.72 65.75 66.12 66.65 68.25
57.60 57.61 57.95 58.25 58.38 58.06 57.85 57.67 57.52 57.79 58.21 59.01 59.83 59.18 60.35 55.54 61.46 64.44 62.55 61.43 61.01 60.22 59.24 60.62 59.98 60.62 58.49 57.02 56.91 57.39 56.49 56.84 58.03 59.12 59.56 58.96 59.79 60.45 61.08 63.81 64.25 65.57 66.30 66.57 67.74
57.24 57.44 57.51 57.83 58.06 57.77 57.67 57.25 57.07 57.65 58.62 59.50 60.53 59.91 58.69 57.21 62.99 62.63 62.38 61.42 61.13 60.87 59.29 60.44 60.62 59.51 59.04 56.81 58.66 57.66 55.04 56.64 57.19 58.43 58.69 60.32 57.68 58.74 61.20 63.40 62.88 65.04 66.53 67.13 67.10
56.92 57.17 57.14 57.56 57.87 57.72 57.75 57.68 57.44 58.31 58.83 59.83 60.57 60.07 58.51 62.15 63.94 62.63 62.80 61.32 61.73 61.60 60.85 61.66 61.77 60.36 59.33 59.49 57.57 55.80 56.63 52.40 56.85 57.45 58.79 57.83 53.30 58.96 62.79 61.82 61.76 63.73 66.05 66.98 67.65
56.46 56.91 56.83 57.17 57.18 57.70 57.52 57.15 57.92 58.51 59.54 60.55 61.48 62.50 56.61 61.92 60.56 62.30 63.59 60.59 60.86 61.06 61.55 60.62 60.93 59.62 58.67 55.67 53.98 55.69 51.19 53.08 54.70 57.39 57.54 57.12 54.70 59.49 61.03 60.61 60.70 62.71 66.06 66.96 68.24
55.85 56.20 56.39 56.52 56.74 57.27 56.58 56.56 57.73 57.21 60.12 61.80 61.32 58.50 59.31 57.38 60.12 61.42 63.59 61.46 59.60 59.52 58.95 58.84 58.68 56.60 56.64 54.87 49.18 50.62 51.80 52.87 52.57 55.96 56.45 55.59 55.78 58.29 60.16 60.30 60.79 62.56 65.41 66.92 67.81
55.38 55.61 55.88 56.12 56.52 56.48 55.48 57.84 56.98 58.67 59.57 57.42 57.49 57.82 57.85 60.40 61.73 60.28 61.65 60.33 59.66 58.94 55.88 58.45 55.19 53.30 55.01 55.80 55.03 54.02 52.79 52.24 54.63 56.36 55.24 54.79 55.31 56.61 60.11 60.62 60.47 63.28 65.15 66.61 67.28
54.76 55.07 55.52 55.74 56.12 56.49 58.61 56.34 58.96 60.98 55.29 59.02 58.45 58.74 59.52 60.42 56.64 58.74 61.57 57.63 57.10 54.87 57.41 55.70 53.17 56.38 56.21 55.63 54.46 54.08 53.01 52.37 55.16 56.55 56.07 55.11 54.53 57.14 58.75 60.33 61.87 63.11 64.48 66.41 67.57
54.44 54.71 54.84 55.24 56.17 56.83 56.92 58.21 62.09 62.48 57.40 56.06 58.03 57.57 58.21 59.57 56.92 57.39 59.54 58.39 55.87 54.81 54.54 53.45 55.02 56.37 54.48 54.23 53.73 53.75 53.20 52.88 52.36 54.83 55.89 55.68 54.04 55.89 58.95 61.98 62.96 64.18 65.59 66.25 66.27
54.27 54.33 54.88 55.79 53.71 58.09 56.95 61.62 63.26 62.83 54.20 53.11 54.93 57.09 58.21 58.75 55.00 59.64 59.96 57.94 55.78 54.21 54.92 54.75 56.67 53.98 53.93 53.66 54.27 51.28 55.45 54.06 53.61 52.33 49.60 54.81 47.28 55.22 56.70 58.12 59.96 62.15 62.98 62.86 63.28
54.26 54.12 55.23 52.98 62.51 58.08 62.74 64.44 63.36 62.78 45.85 53.87 54.97 60.89 59.00 56.09 56.66 56.45 59.81 58.40 54.62 54.83 55.52 53.40 53.67 53.60 53.46 54.62 55.48 53.32 55.49 54.29 54.03 52.96 52.55 51.88 48.76 53.32 56.48 55.94 57.67 59.35 60.73 61.62 62.41
53.85 54.07 54.32 56.90 60.12 62.12 62.77 63.66 63.18 52.23 45.36 51.35 55.11 54.08 54.48 55.39 55.21 57.20 57.10 59.33 59.13 55.39 55.71 55.59 57.97 56.09 56.39 56.01 55.76 56.29 55.72 55.54 55.12 53.34 47.89 51.34 48.77 51.66 53.34 55.29 57.33 58.88 59.49 60.68 61.26
53.35 54.29 54.58 62.08 61.08 62.87 64.32 61.55 51.53 47.69 53.78 51.09 51.88 53.69 53.69 52.60 53.66 54.90 54.38 54.53 53.21 51.72 51.40 53.79 54.35 56.61 56.81 54.31 57.65 56.66 54.05 47.89 46.45 46.32 44.93 51.63 48.61 52.19 55.25 56.34 56.70 57.07 58.47 60.22 61.70
52.34 53.50 58.13 62.16 63.44 62.34 62.97 56.65 48.34 51.25 50.89 55.15 53.42 53.03 50.91 53.24 53.37 54.04 53.79 53.32 55.04 55.46 53.25 50.51 49.32 54.73 56.75 54.57 54.01 55.14 54.28 48.46 42.66 44.07 45.94 51.74 47.97 51.05 56.08 56.98 57.46 58.51 59.01 59.77 60.46
50.12 62.23 63.05 64.35 64.06 63.88 59.67 51.22 51.67 52.55 54.45 52.58 53.34 51.26 50.72 52.62 52.87 53.40 53.64 53.01 53.93 55.14 52.66 51.53 50.80 56.37 54.97 56.93 56.48 54.79 50.72 55.51 52.13 52.15 47.27 49.75 51.98 55.37 56.57 56.18 57.32 58.03 58.87 59.40 60.37
61.85 60.36 60.77 64.87 65.94 63.03 57.07 50.11 53.90 55.23 54.55 54.57 51.04 52.14 49.60 51.32 51.62 52.24 52.56 54.63 53.83 56.66 59.02 55.86 50.54 55.02 55.95 57.26 57.92 56.87 56.34 51.06 50.90 44.16 42.60 46.73 48.68 47.68 53.26 55.00 56.47 57.12 58.28 59.67 61.30
62.26 56.55 63.53 64.35 64.11 59.01 52.99 53.26 54.41 55.25 55.51 53.76 53.66 51.92 52.44 51.64 52.08 52.23 52.90 55.14 56.57 56.14 58.13 57.66 55.09 53.35 56.06 54.60 53.61 54.31 52.35 53.55 53.32 51.30 45.24 43.77 47.15 55.68 55.21 56.28 56.88 58.15 58.91 59.39 60.63
59.55 54.47 63.58 62.97 56.14 56.30 53.68 54.85 50.04 54.24 55.80 54.86 56.81 56.52 54.01 53.29 52.77 52.41 51.72 56.81 59.56 59.32 54.75 58.35 57.20 52.42 51.81 57.67 57.66 55.71 54.18 53.73 49.20 47.49 49.56 48.88 47.52 57.38 57.54 57.83 58.79 58.57 59.78 61.04 61.23
56.53 59.59 63.33 61.59 51.93 53.42 56.40 54.09 54.53 53.68 53.87 55.03 55.45 57.37 58.39 55.16 53.23 53.83 54.05 60.16 59.97 57.99 57.51 59.21 55.16 50.35 51.49 55.40 56.33 52.19 54.93 54.84 53.89 54.79 49.44 46.59 48.00 56.78 57.89 58.08 59.30 58.94 59.48 60.07 60.30
57.21 53.36 56.46 57.45 58.32 56.47 54.20 53.45 52.42 54.72 53.82 55.00 56.69 57.82 57.30 56.17 57.82 55.36 55.31 58.29 60.16 60.19 57.82 61.46 57.71 53.87 48.62 50.83 55.24 52.67 53.24 54.01 53.59 49.83 49.47 49.20 50.38 53.85 56.52 57.05 58.28 59.12 59.92 59.79 60.30
57.44 58.12 60.22 51.49 53.48 56.21 56.14 54.08 51.79 52.03 53.71 56.78 55.77 56.57 56.29 54.46 55.66 55.31 57.57 58.36 59.43 56.18 59.67 61.84 55.24 55.24 54.41 54.47 54.10 53.19 52.87 52.77 52.01 52.43 48.98 50.46 50.94 54.16 57.03 57.43 58.03 59.61 59.71 59.22 59.61
57.77 58.47 59.44 59.27 57.16 54.50 52.62 54.22 52.28 52.76 53.97 54.20 55.62 56.14 56.42 56.22 55.85 55.09 57.38 57.94 57.95 59.85 59.70 60.93 56.03 56.00 53.08 54.49 54.27 52.31 53.64 53.11 52.90 52.07 52.17 52.75 51.78 56.84 58.83 58.88 58.85 59.26 58.47 58.39 58.77
61.18 62.86 61.08 53.89 56.20 53.98 54.42 54.00 53.27 54.14 55.74 58.00 57.10 56.90 56.13 58.00 60.07 61.01 61.56 61.20 60.58 59.14 58.57 57.98 55.98 53.90 50.17 53.65 53.61 50.02 52.12 53.01 52.67 53.81 53.92 50.28 54.14 57.38 57.49 58.24 58.82 58.72 59.18 59.49 60.19
MSLP
1019.08 1019.13 1019.01 1019.07 1018.76 1018.68 1018.39 1018.22 1017.91 1017.61 1017.23 1016.90 1016.48 1016.11 1015.70 1015.06 1013.87 1012.29 1011.07 1010.27 1009.92 1010.26 1010.37 1009.36 1008.32 1007.68 1007.01 1006.04 1005.19 1004.61 1003.50 1002.87 1002.93 1005.20 1003.86 1004.62 1005.63 1005.51 1006.63 1006.88 1007.50 1008.08 1008.24 1009.11 1010.75
1018.94 1018.99 1018.92 1018.89 1018.69 1018.56 1018.28 1018.15 1017.79 1017.46 1016.97 1016.80 1016.47 1015.94 1015.51 1014.97 1013.24 1010.60 1010.39 1009.99 1010.28 1010.39 1010.02 1008.77 1007.80 1007.16 1006.28 1005.32 1004.88 1004.12 1002.99 1002.48 1003.03 1003.38 1004.37 1004.10 1006.33 1005.55 1006.39 1006.38 1007.15 1007.98 1008.92 1009.49 1010.68
1018.81 1018.83 1018.80 1018.66 1018.56 1018.44 1018.17 1018.02 1017.67 1017.34 1016.94 1016.76 1016.41 1015.79 1015.27 1014.73 1011.99 1008.94 1009.98 1010.00 1010.19 1010.42 1009.32 1007.73 1007.19 1006.53 1005.69 1004.75 1004.31 1003.63 1003.09 1003.35 1003.80 1004.15 1003.74 1004.00 1004.53 1005.00 1005.74 1008.05 1006.36 1007.00 1008.09 1009.47 1010.52
1018.61 1018.70 1018.59 1018.40 1018.41 1018.31 1018.05 1017.80 1017.62 1017.22 1016.96 1016.70 1016.27 1015.63 1014.77 1013.70 1009.70 1009.31 1009.99 1010.25 1010.37 1009.97 1008.25 1007.29 1006.76 1006.05 1004.95 1004.18 1004.16 1003.88 1003.87 1003.97 1003.95 1004.51 1004.30 1004.10 1004.44 1004.89 1005.70 1008.00 1006.33 1006.67 1007.58 1009.12 1010.14
1018.38 1018.46 1018.36 1018.14 1018.30 1018.12 1017.85 1017.58 1017.46 1017.13 1016.94 1016.57 1016.16 1015.66 1013.98 1011.33 1008.44 1009.37 1010.07 1010.28 1009.89 1009.27 1007.54 1006.67 1005.96 1005.11 1003.98 1003.78 1004.25 1004.06 1003.95 1004.34 1004.44 1004.54 1004.32 1004.35 1004.52 1004.71 1006.21 1005.49 1006.67 1006.75 1007.89 1008.58 1009.72
1018.20 1018.18 1018.15 1017.91 1018.12 1017.87 1017.59 1017.37 1017.25 1016.99 1016.83 1016.42 1016.03 1015.62 1013.73 1009.99 1008.34 1008.74 1008.96 1009.41 1008.38 1007.91 1007.05 1006.27 1005.41 1005.23 1004.29 1004.05 1004.02 1004.04 1004.16 1004.08 1004.42 1004.17 1004.65 1004.59 1004.36 1004.89 1005.33 1005.33 1006.07 1007.18 1007.34 1008.35 1009.02
1017.96 1017.96 1017.81 1017.70 1017.99 1017.59 1017.27 1017.14 1017.01 1016.83 1016.53 1016.20 1015.89 1014.85 1011.82 1008.74 1008.39 1008.51 1008.69 1008.41 1007.99 1007.43 1006.88 1006.78 1006.52 1005.83 1004.71 1004.33 1004.40 1004.14 1004.21 1004.12 1004.27 1004.48 1004.41 1004.95 1004.26 1005.47 1005.03 1005.30 1005.64 1006.57 1007.55 1007.92 1008.87
1017.77 1017.65 1017.49 1017.59 1017.73 1017.23 1016.99 1016.95 1016.77 1016.56 1016.22 1015.90 1015.64 1013.91 1009.63 1008.41 1008.22 1008.36 1008.25 1007.98 1008.14 1007.89 1007.58 1007.22 1006.88 1006.10 1005.01 1004.41 1004.27 1003.72 1003.57 1003.40 1004.33 1004.64 1004.75 1005.33 1005.35 1007.61 1005.38 1004.89 1005.50 1006.13 1007.03 1008.23 1008.92
1017.53 1017.35 1017.27 1017.51 1017.19 1017.03 1016.85 1016.76 1016.42 1016.23 1016.02 1015.63 1014.68 1012.29 1008.53 1008.93 1008.12 1007.65 1007.70 1007.11 1007.61 1007.78 1007.68 1007.75 1007.04 1005.39 1004.75 1004.06 1003.59 1003.20 1003.88 1003.13 1004.00 1004.72 1004.76 1005.05 1004.65 1005.25 1005.22 1005.34 1005.70 1006.01 1006.47 1008.13 1009.10
1017.17 1017.20 1017.15 1017.07 1016.97 1016.78 1016.74 1016.55 1016.09 1016.00 1015.29 1014.11 1012.69 1011.21 1008.45 1007.36 1007.55 1007.60 1007.63 1007.41 1007.18 1007.31 1007.33 1007.11 1006.04 1004.79 1003.76 1003.03 1003.40 1004.15 1003.42 1004.15 1003.95 1004.67 1004.82 1004.30 1004.11 1004.11 1004.75 1005.73 1005.79 1005.94 1006.58 1007.78 1008.93
1017.04 1016.87 1016.81 1016.93 1016.65 1016.61 1016.57 1015.69 1015.24 1014.15 1012.56 1009.90 1009.11 1008.49 1007.49 1007.55 1007.69 1007.11 1007.38 1007.33 1007.00 1006.87 1006.02 1005.94 1004.91 1003.75 1004.19 1004.25 1004.42 1004.47 1004.19 1004.11 1004.33 1005.14 1005.50 1004.67 1004.88 1004.73 1005.27 1006.05 1005.80 1006.73 1007.33 1008.09 1008.77
1016.73 1016.75 1016.69 1016.59 1016.41 1016.55 1015.98 1012.81 1010.89 1010.48 1009.63 1009.09 1008.61 1008.13 1007.76 1007.46 1006.90 1006.70 1007.12 1006.81 1006.57 1005.78 1005.33 1005.19 1004.60 1004.21 1004.79 1004.95 1005.01 1004.83 1004.49 1005.17 1004.91 1005.35 1005.82 1004.88 1004.61 1004.70 1005.92 1006.39 1006.81 1006.91 1007.37 1008.08 1008.89
1016.77 1016.63 1016.29 1016.23 1016.42 1016.31 1013.73 1011.32 1010.52 1010.17 1008.58 1008.25 1007.95 1007.22 1007.20 1007.21 1006.15 1006.23 1006.59 1006.07 1005.73 1005.27 1005.03 1004.45 1004.67 1005.06 1005.24 1005.28 1005.13 1005.10 1005.38 1005.70 1005.77 1005.52 1004.97 1005.25 1004.45 1005.01 1005.90 1006.47 1007.27 1007.56 1007.66 1008.13 1008.49
1016.52 1016.14 1015.91 1016.13 1016.21 1012.71 1011.85 1010.95 1010.67 1010.56 1008.25 1007.54 1007.56 1006.94 1007.00 1006.73 1006.39 1006.40 1006.45 1006.11 1005.54 1004.94 1004.89 1004.64 1005.12 1005.45 1005.42 1005.09 1005.87 1005.33 1006.33 1006.24 1005.99 1005.70 1004.56 1005.38 1004.36 1005.05 1005.92 1006.33 1006.88 1007.57 1007.77 1007.95 1008.55
1015.94 1015.79 1015.86 1015.86 1014.06 1011.53 1010.66 1010.65 1010.56 1010.77 1007.27 1006.81 1006.33 1006.39 1006.26 1006.43 1005.82 1006.62 1006.88 1006.49 1005.69 1005.22 1005.91 1004.81 1005.30 1005.58 1005.26 1005.85 1006.51 1006.26 1006.83 1006.54 1006.20 1005.68 1005.38 1005.54 1004.83 1006.05 1006.15 1005.84 1006.69 1007.13 1007.61 1007.97 1008.28
1015.74 1015.55 1015.79 1015.46 1013.51 1010.83 1010.79 1010.85 1010.85 1009.35 1006.55 1006.30 1006.10 1006.30 1006.18 1006.15 1006.10 1006.36 1006.67 1006.57 1006.14 1005.81 1005.66 1005.30 1005.75 1005.71 1005.79 1006.64 1006.97 1006.87 1006.28 1005.80 1006.02 1005.11 1004.99 1006.04 1006.09 1006.09 1006.52 1006.58 1006.62 1007.03 1007.43 1007.63 1007.84
1015.31 1015.05 1015.50 1012.94 1010.85 1010.89 1010.80 1010.39 1009.38 1007.35 1006.85 1006.29 1005.97 1005.87 1005.68 1005.75 1005.98 1006.39 1006.45 1006.41 1005.99 1005.79 1005.46 1005.99 1005.95 1006.45 1006.84 1006.32 1006.75 1006.65 1006.48 1005.14 1005.83 1005.29 1005.17 1006.07 1006.07 1006.58 1007.09 1007.27 1007.49 1007.47 1007.32 1007.26 1007.35
1015.25 1015.42 1013.97 1012.08 1011.33 1011.26 1010.77 1009.61 1007.92 1006.77 1006.42 1006.63 1006.19 1005.98 1005.62 1005.70 1006.05 1006.26 1006.29 1005.97 1006.51 1005.80 1005.25 1005.35 1005.68 1006.49 1007.11 1006.97 1006.88 1007.07 1007.32 1007.33 1007.11 1006.33 1006.12 1006.17 1006.14 1006.65 1007.42 1007.73 1007.91 1007.96 1007.93 1007.87 1007.71
1015.67 1014.29 1012.10 1011.39 1011.56 1011.35 1010.23 1008.30 1007.21 1007.07 1007.44 1007.21 1006.71 1006.16 1005.83 1005.85 1005.87 1006.41 1006.43 1005.91 1006.26 1006.51 1006.06 1005.57 1005.87 1006.91 1007.35 1007.63 1007.91 1007.90 1009.16 1008.67 1008.49 1007.64 1006.99 1006.60 1006.23 1006.25 1007.44 1007.10 1007.35 1007.45 1007.37 1007.38 1007.47
1014.22 1011.95 1010.75 1011.31 1011.64 1010.92 1009.51 1008.15 1008.16 1008.64 1008.58 1007.80 1006.46 1006.12 1005.53 1005.87 1006.31 1006.23 1006.25 1006.74 1007.03 1007.35 1007.20 1006.73 1006.71 1006.99 1007.82 1008.17 1008.59 1008.53 1008.79 1008.42 1008.63 1008.17 1008.09 1007.29 1006.75 1008.68 1007.81 1007.98 1008.23 1008.26 1008.00 1007.91 1008.23
1013.68 1010.98 1010.93 1011.02 1011.29 1010.07 1008.35 1007.83 1008.63 1009.15 1008.87 1008.04 1007.00 1006.36 1005.63 1005.75 1006.25 1006.17 1006.26 1007.57 1007.99 1007.85 1008.01 1007.77 1007.99 1008.81 1008.13 1007.91 1008.71 1008.84 1009.86 1009.22 1009.33 1009.46 1009.14 1008.05 1007.47 1007.92 1008.46 1008.59 1008.81 1009.09 1008.90 1008.74 1008.54
1012.74 1010.15 1010.36 1010.92 1010.30 1009.10 1008.05 1008.48 1009.79 1009.03 1008.77 1008.55 1008.34 1007.23 1006.31 1006.09 1006.33 1006.23 1006.70 1007.81 1009.19 1009.02 1008.56 1008.59 1008.61 1008.34 1010.40 1008.69 1008.75 1008.75 1008.89 1009.57 1010.00 1010.10 1009.93 1009.37 1008.71 1008.97 1009.21 1009.31 1009.53 1009.87 1009.44 1009.92 1010.27
1012.18 1010.22 1010.54 1010.58 1009.17 1008.47 1008.97 1008.99 1009.36 1009.25 1008.97 1008.63 1008.19 1007.91 1007.57 1007.12 1007.07 1007.01 1007.33 1009.22 1009.76 1009.66 1009.84 1009.57 1009.27 1008.75 1008.21 1009.10 1011.26 1010.85 1009.19 1010.11 1010.58 1011.02 1010.31 1009.53 1008.79 1008.48 1009.07 1009.67 1009.97 1010.15 1010.37 1010.27 1010.55
1013.27 1010.55 1010.37 1010.27 1009.11 1008.83 1008.73 1009.19 1009.29 1009.71 1009.56 1009.35 1008.71 1008.51 1007.96 1007.52 1007.59 1007.59 1007.95 1009.60 1010.23 1010.43 1011.33 1011.01 1009.89 1009.33 1008.60 1009.49 1009.77 1010.02 1009.25 1009.71 1010.59 1010.67 1010.20 1009.92 1009.71 1009.43 1009.51 1010.15 1010.53 1011.00 1011.08 1010.82 1010.83
1013.20 1010.89 1010.91 1009.70 1009.53 1009.31 1009.26 1009.10 1008.97 1009.13 1009.57 1009.30 1008.87 1008.30 1007.84 1007.65 1007.39 1007.52 1008.13 1009.61 1010.27 1011.36 1011.34 1010.85 1010.07 1009.39 1009.03 1009.43 1009.55 1009.34 1009.35 1009.37 1009.89 1010.29 1010.63 1010.57 1010.29 1010.01 1010.26 1010.72 1010.84 1011.35 1011.58 1011.46 1011.75
1013.99 1012.19 1011.34 1010.22 1009.65 1009.57 1009.70 1009.37 1009.21 1009.11 1009.07 1009.01 1008.91 1008.43 1008.39 1008.03 1007.73 1007.47 1008.08 1008.67 1009.13 1010.65 1010.59 1010.84 1010.17 1010.05 1009.43 1009.53 1009.90 1009.66 1009.57 1009.57 1009.87 1010.30 1010.63 1010.67 1010.65 1012.03 1011.24 1010.80 1011.45 1012.03 1012.28 1012.60 1013.12
1015.05 1013.96 1012.87 1010.90 1010.46 1009.59 1009.27 1009.46 1009.59 1009.68 1009.64 1009.23 1008.94 1008.66 1008.81 1008.60 1008.73 1009.13 1009.27 1009.68 1009.91 1010.01 1010.33 1010.55 1010.06 1010.33 1009.72 1009.69 1010.07 1009.77 1009.44 1009.77 1010.32 1010.71 1011.06 1010.95 1010.95 1011.21 1011.39 1011.95 1012.59 1012.87 1013.20 1013.86 1014.35
Wind_Speed
5 6 6 9 8 9 9 10 10 10 10 12 13 14 13 14 21 17 15 4 4 5 2 15 12 14 13 16 6 12 13 5 1 23 11 10 12 8 6 14 5 6 13 17 15
6 7 7 9 9 9 9 10 11 11 10 13 14 14 14 14 20 18 3 7 7 3 12 16 17 15 13 12 4 12 8 8 10 7 7 9 19 11 5 12 13 11 11 16 14
6 7 8 9 10 9 9 11 11 12 11 13 15 15 14 14 15 6 2 5 4 6 15 15 16 15 14 11 9 6 6 9 6 10 9 10 4 9 7 32 14 13 16 15 13
7 9 9 9 10 10 9 11 11 12 11 12 15 15 16 11 4 10 6 5 3 8 12 12 13 13 17 11 3 11 4 3 10 4 5 2 4 5 14 25 7 9 14 15 13
8 10 10 9 10 10 10 10 11 11 12 12 14 13 13 11 3 9 9 8 10 12 11 11 13 14 14 5 4 9 5 2 3 4 7 2 5 3 3 9 5 9 6 15 12
9 9 10 8 10 10 9 10 11 10 12 13 13 16 11 15 5 9 10 9 10 12 6 8 4 10 11 3 9 4 3 1 3 2 4 12 8 5 5 10 11 3 11 9 14
9 9 9 8 11 9 9 10 11 10 12 14 12 9 10 4 2 7 8 9 3 5 6 1 6 11 2 8 4 9 11 10 8 5 5 9 15 10 4 8 4 10 5 9 11
9 9 9 9 11 9 9 11 11 11 14 14 10 11 6 4 3 6 9 6 5 4 6 5 7 11 10 1 11 15 10 7 6 5 6 11 5 17 18 4 7 9 7 6 10
8 8 9 12 10 9 9 11 13 13 13 9 9 9 7 4 8 4 8 5 7 5 4 5 8 13 10 16 15 6 12 6 11 3 5 7 6 11 3 4 8 7 11 9 9
7 8 9 10 8 8 9 8 6 8 10 11 11 9 7 5 5 5 6 3 6 7 7 9 10 13 15 13 8 2 9 3 3 9 7 14 9 10 9 6 9 7 4 9 10
6 7 7 8 7 5 9 7 8 8 14 9 13 8 9 4 6 8 6 8 7 8 15 14 14 14 11 11 12 10 8 8 6 6 10 17 8 14 8 8 4 4 5 7 7
7 6 6 6 3 4 8 14 6 10 11 8 3 6 2 3 10 9 8 9 9 15 12 8 15 3 5 6 7 9 11 12 11 4 9 16 9 5 3 4 5 2 6 9 9
7 5 4 3 2 5 13 9 7 7 9 11 10 8 11 11 10 13 13 12 11 14 11 17 10 6 3 6 11 7 9 11 14 14 15 9 19 8 10 8 5 2 3 4 7
8 5 5 6 1 11 13 11 7 5 7 13 12 8 8 10 5 4 6 8 4 9 6 10 10 3 7 6 7 5 9 10 12 13 9 3 8 11 4 9 7 7 10 11 8
9 5 7 15 12 10 8 3 7 5 7 15 14 7 10 15 10 10 3 9 17 10 6 2 5 8 12 14 6 11 11 9 11 13 9 2 10 5 4 7 8 4 2 0 1
9 5 8 6 8 5 3 1 5 9 3 10 9 12 14 14 8 10 11 7 8 7 11 5 6 4 13 3 4 8 15 13 10 12 6 6 7 7 7 13 4 3 4 4 6
11 6 8 8 2 2 2 7 8 12 7 9 11 10 15 10 9 11 10 11 10 9 9 6 11 6 4 12 8 10 12 6 6 3 3 7 7 14 8 7 6 10 10 8 8
10 5 12 9 4 4 6 10 10 5 5 6 3 10 9 12 11 8 8 8 7 11 7 10 11 11 4 7 12 10 9 8 10 9 11 9 3 8 5 3 4 7 8 8 13
3 7 8 4 4 5 9 11 2 6 6 3 10 11 12 12 4 11 11 6 3 8 11 4 5 8 3 2 7 7 3 6 9 11 10 4 3 7 4 2 1 9 8 10 9
7 8 7 3 2 6 9 3 6 5 5 8 10 14 12 12 11 10 10 5 4 6 3 4 4 5 9 6 7 16 8 2 6 6 12 14 7 2 9 14 16 15 15 13 10
8 7 8 4 6 8 9 8 7 5 4 4 4 6 10 14 13 12 10 9 2 7 5 6 5 6 8 8 12 10 5 6 5 2 9 10 12 13 10 12 12 14 14 13 7
5 5 8 5 8 9 10 8 5 2 2 2 5 9 7 0 8 7 5 7 2 4 7 2 5 5 2 10 10 7 8 6 6 13 10 11 3 13 12 12 10 11 9 12 10
6 2 6 7 10 9 5 6 4 4 1 2 2 5 4 5 6 7 1 7 1 4 4 1 6 10 6 9 14 7 5 4 1 8 13 11 7 13 9 10 9 9 9 9 3
5 6 6 8 9 8 9 9 11 5 5 3 3 5 6 7 7 7 5 3 3 2 2 1 6 10 12 8 10 9 3 3 4 9 12 12 17 15 10 10 10 10 9 10 9
4 1 5 10 11 9 8 9 10 7 8 6 7 8 7 5 8 6 8 9 7 6 5 4 8 6 6 8 8 8 12 7 10 12 10 11 14 13 9 8 6 8 9 11 15
7 5 3 2 4 11 6 7 9 9 7 9 9 10 4 7 3 3 6 4 6 7 4 4 5 7 10 6 8 10 12 13 8 6 11 10 12 7 14 7 11 9 9 12 13
2 3 6 7 8 11 10 9 9 3 8 7 6 4 9 5 7 7 7 6 5 4 5 4 5 6 13 4 8 12 7 8 8 9 15 15 13 9 8 8 8 8 12 13 13
Wind_Direction
298 301 310 300 308 303 310 310 309 306 313 313 314 312 309 312 302 263 256 316 49 148 223 264 257 258 257 260 245 265 275 251 109 58 115 132 112 102 74 124 110 73 59 114 131
294 296 298 294 298 297 308 305 306 305 322 317 312 308 310 318 298 264 54 95 131 150 219 228 240 242 249 257 245 271 277 50 29 99 73 124 108 134 201 146 141 137 105 118 144
285 287 286 286 294 295 306 301 306 310 323 317 309 306 307 314 274 86 86 122 147 194 251 223 232 236 247 248 210 246 358 61 109 18 339 110 95 123 123 343 145 154 142 143 155
279 277 278 284 291 295 301 301 307 314 316 311 304 307 307 271 304 71 131 156 189 265 245 213 222 216 237 214 178 253 38 358 71 116 257 282 99 130 134 202 48 104 135 149 167
270 271 274 281 284 289 294 300 304 308 307 302 300 312 311 229 33 107 138 164 201 227 225 208 210 224 240 181 168 249 114 220 138 224 268 3 237 260 6 109 118 96 133 159 173
264 267 268 278 278 279 288 296 296 302 298 294 299 306 261 263 49 134 174 181 216 223 210 246 321 351 308 251 241 101 270 240 219 179 191 275 232 181 338 137 149 156 173 188 160
267 265 267 275 271 275 284 291 287 294 287 289 292 286 264 31 12 140 179 210 194 271 193 228 317 270 322 168 219 224 241 189 201 180 257 272 273 340 237 159 185 153 235 177 171
265 263 264 269 264 272 280 283 284 284 284 280 275 269 293 75 299 207 187 199 195 209 303 310 285 280 266 34 220 228 267 190 74 194 149 263 184 205 263 223 178 236 143 187 168
267 262 263 257 262 269 279 283 278 280 262 261 246 232 136 144 203 143 195 194 173 213 226 297 255 252 203 232 235 260 178 174 129 65 348 241 322 195 45 329 281 259 165 169 169
281 263 254 258 259 269 277 270 314 289 226 225 260 257 214 125 105 132 167 205 167 172 197 229 224 222 230 246 34 240 34 174 8 51 290 275 247 301 72 328 287 244 136 163 190
287 268 263 254 251 268 280 212 209 201 227 251 176 291 120 128 180 187 166 200 197 219 216 208 241 247 20 3 348 331 312 302 90 101 284 301 300 283 30 299 264 246 210 184 192
316 275 251 247 253 253 260 250 18 351 192 215 253 258 164 261 182 169 182 223 206 224 221 205 238 14 7 336 303 279 296 30 304 91 296 288 295 67 37 15 342 302 166 177 164
310 273 226 194 196 229 236 239 312 310 251 167 198 200 171 204 207 161 211 225 214 241 217 251 35 39 272 223 263 274 351 352 323 318 264 278 270 138 130 115 111 177 80 135 176
310 281 201 154 202 207 214 215 244 324 248 147 193 212 181 228 213 57 253 287 250 262 176 265 75 259 238 233 320 14 7 322 311 305 321 320 278 119 100 112 117 158 177 162 147
326 279 211 220 320 207 86 230 296 232 231 147 167 112 204 213 132 171 192 252 260 226 260 177 174 209 241 47 360 6 327 301 292 272 296 105 306 86 222 142 118 131 126 183 199
328 250 180 198 243 334 267 190 213 233 158 154 152 191 196 214 201 131 189 240 356 262 227 97 28 315 68 84 302 288 265 264 260 246 186 5 330 78 45 11 36 151 227 235 263
340 200 201 311 198 14 243 201 207 254 137 150 185 194 202 175 167 184 191 195 209 221 184 170 186 98 273 270 81 325 335 325 261 245 29 61 276 73 50 30 341 339 328 296 251
349 165 214 278 311 288 225 228 244 43 157 53 283 193 219 168 178 206 197 186 245 282 206 215 164 178 131 328 339 24 312 24 318 343 321 51 7 115 85 40 322 313 306 293 290
8 207 223 171 299 259 244 223 209 156 41 268 186 218 206 181 210 190 216 241 62 224 286 282 125 104 22 282 300 228 26 360 300 266 283 149 42 80 201 11 350 322 286 288 294
261 203 164 154 222 243 244 308 102 60 279 220 222 223 193 177 215 204 171 147 154 286 335 2 281 147 125 228 65 312 13 305 322 319 332 342 350 4 13 11 351 332 329 342 8
246 215 109 208 223 228 236 150 134 111 1 298 345 214 238 184 206 191 156 102 344 164 243 318 261 15 183 221 157 215 149 271 307 347 319 316 328 45 6 352 351 339 339 325 352
289 221 128 191 217 222 235 126 32 96 170 165 272 313 289 69 210 217 196 83 59 326 226 116 306 332 320 254 347 300 342 342 342 345 320 279 342 28 10 10 24 343 17 33 0
264 66 150 224 224 208 117 129 222 216 225 281 186 300 274 210 223 263 141 78 152 241 339 138 230 266 230 118 19 321 283 341 217 269 302 302 306 27 32 24 26 17 7 331 351
271 187 151 211 271 293 174 214 201 180 262 254 310 238 206 189 235 200 170 119 124 78 336 297 270 279 299 167 193 224 191 223 317 277 329 323 337 326 32 19 5 357 342 345 7
241 22 5 186 214 222 158 201 214 173 222 207 201 244 217 213 193 178 107 146 150 143 190 254 255 246 301 332 299 315 302 322 317 326 316 327 318 0 21 351 13 18 357 3 22
310 325 195 82 306 202 156 184 222 209 208 202 245 205 204 253 278 205 157 206 127 173 188 186 276 292 293 216 282 295 299 284 266 314 311 318 307 101 314 7 27 0 1 17 14
10 223 274 122 206 211 169 212 217 234 201 313 226 245 219 61 27 50 54 46 38 316 182 242 278 246 277 114 305 278 313 1 334 331 345 319 338 331 360 19 355 23 29 22 15